Regional Weather Roundup
Issued by NWS Charleston, SC

Current Version | Previous Version | Graphics & Text | Print | Product List | Glossary On
Versions: 1 2 3 4 5 6 7 8 9 10 11 12 13 14 15 16 17 18 19 20 21 22 23 24 25 26 27 28 29 30 31 32 33 34 35 36 37 38 39 40 41 42 43 44 45 46 47 48 49 50
000
ASUS42 KCHS 210126
RWRCHS

REGIONAL WEATHER ROUNDUP
NATIONAL WEATHER SERVICE CHARLESTON SC
900 PM EDT MON APR 20 2015

NOTE: "FAIR" INDICATES FEW OR NO CLOUDS BELOW 12,000 FEET WITH NO
SIGNIFICANT WEATHER AND/OR OBSTRUCTIONS TO VISIBILITY.

NOT ALL STATIONS ARE QUALITY CONTROLLED BY THE NATIONAL
WEATHER SERVICE. USE DATA WITH CAUTION...ESPECIALLY
DEWPOINT OBSERVATIONS.

SCZ027-030-031-034>040-042>050-210200-
...SOUTHEAST SOUTH CAROLINA...

CITY           SKY/WX    TMP DP  RH WIND       PRES   REMARKS
N CHARLESTON   CLOUDY    68  65  90 S7        29.77S
WATERFRONT PRK   N/A     70 N/A N/A S9          N/A
MOUNT PLEASANT FAIR      70  66  88 CALM      29.79R
PINOPOLIS      NOT AVBL
MONCKS CORNER  FAIR      70  66  88 S3        29.77R
SUMMERVILLE    FAIR      68  68 100 S3        29.78R
BEAUFORT MCAS  CLOUDY    69  60  73 SW9       29.79R
BEAUFORT ARPT  FAIR      70  61  73 CALM      29.80R
HILTON HEAD IS CLOUDY    70  59  68 SW9G16    29.82R
WALTERBORO     CLOUDY    66  63  88 SW6       29.79R
ALLENDALE      FAIR      68  63  83 VRB3      29.77R

...SOUTHERN MIDLANDS AND PEE DEE...

CITY           SKY/WX    TMP DP  RH WIND       PRES   REMARKS
GEORGETOWN     NOT AVBL
KINGSTREE      NOT AVBL
ORANGEBURG     MOCLDY    67  63  87 S7        29.75R
BARNWELL       FAIR      68  63  83 S5        29.77R
AIKEN          FAIR      66  55  68 SW9       29.77R
MANNING        FAIR      68  63  83 S5        29.75S
COLUMBIA       PTCLDY    69  62  78 S3        29.70R
SUMTER         PTCLDY    68  64  89 S8        29.70R
FLORENCE       CLOUDY    70  64  81 S12       29.72S
MYRTLE BEACH   MOCLDY    70  63  78 S14       29.79R
N MYRTLE BEACH CLOUDY    68  65  90 SW14G23   29.77R

$$

GAZ063-065-086>088-099>101-113>116-118-119-134>141-150-210200-
...SOUTHEAST GEORGIA...

CITY           SKY/WX    TMP DP  RH WIND       PRES   REMARKS
SAVANNAH ARPT  CLOUDY    69  57  65 SW12      29.80R
HUNTER AAF     CLOUDY    68  60  76 SW8       29.79R
FORT STEWART   MOCLDY    68  59  73 S7        29.81R
STATESBORO       N/A     68  60  74 SW10      29.79R
SYLVANIA       PTCLDY    67  61  81 SW5       29.79R
CLAXTON        FAIR      66  61  82 SW5       29.81R

...CSRA...CENTRAL AND FAR SOUTHEAST GEORGIA...

CITY           SKY/WX    TMP DP  RH WIND       PRES   REMARKS
THOMSON        CLEAR     68  64  86 S5        29.79R
AUGUSTA-BUSH   CLEAR     67  60  78 S7        29.73R
AUGUSTA-DANIEL CLEAR     70  59  68 S13       29.73R
SWAINSBORO     NOT AVBL
VIDALIA        MOCLDY    68  61  77 SW8       29.81R
EASTMAN        FAIR      68  67  98 SW6       29.83R
HAZLEHURST     FAIR      68  63  82 SW3       29.81R
ALMA           CLOUDY    65  61  87 S6        29.82R
WAYCROSS       CLOUDY    67  64  87 SW7       29.84R
JESUP          FAIR      68  63  83 SW5       29.84R
BAXLEY         FAIR      68  63  83 S6        29.82R
BRUNSWICK      CLOUDY    68  59  73 SW7       29.86R
SAINT SIMONS   CLOUDY    67  59  75 SW9       29.86R

$$

SCZ027-028-034-036>038-045-046-048>050-GAZ119-141-210200-
...LAKE AND SUPPLEMENTAL COASTAL OBSERVATIONS...

STATION/POSITION TIME  TEMP    WIND        PRES    WAVE   SWELL
                       AIR SEA DIR/SP/G            HT/PER HT/PER/DIR
                 (UTC) (F)     (DEG/KT/KT) (MB)    (FT/S) (FT/S/D)
UPR LAKE MARION  NOT AVBL
WINYAH BAY       0000   69     200/ 10     1007.0S
LAKE MURRAY      0000   71     210/ 12/ 15 1004.7F
ACE BASIN NERRS  NOT AVBL
FORT PULASKI     0100   71 71  230/  9/ 13 1010.0R
SAPELO ISLAND    0000   70     240/ 11     1010.0R

$$

ANZ835-935-AMZ111-154-330-350-352-354-370-450-454-472-210200-
...C-MAN AND BUOY OBSERVATIONS...

STATION/POSITION TIME  TEMP    WIND        PRES    WAVE   SWELL
                       AIR SEA DIR/SP/G            HT/PER HT/PER/DIR
                 (UTC) (F)     (DEG/KT/KT) (MB)    (FT/S) (FT/S/D)
BUOY 41004       0050   75 74  180/ 23/ 27 1006.9F   4/ 5   2/ 9
BUOY 41008       0050   69 68  250/ 14/ 17 1010.0R   3/ 5
FOLLY BEACH CMAN 0100   70     220/ 10/ 13 1008.8R
CAPERS NEARSHORE NOT AVBL
FRIPP NEARSHORE  NOT AVBL


STATION/POSITION TIME  TEMP    WIND        PRES    WAVE   SWELL
                       AIR SEA DIR/SP/G            HT/PER HT/PER/DIR
                 (UTC) (F)     (DEG/KT/KT) (MB)    (FT/S) (FT/S/D)
5E ST. MARYS GA  0021      70                N/A     2/ 9
FRYING PAN BUOY  0050   74 73  230/ 16/ 17 1009.2R   5/ 5   2/110/ 8
BUOY 41025       0050   74 75  200/ 21/ 25 1007.5F   5/ 6   3/150/ 7
CAPE LOOKOUT NC  0100   68     200/ 10/ 13 1007.8R
BUOY 41002       0050   74 73  230/ 14/ 16 1011.8R   4/ 8   3/ 80/ 8
BUOY 41010       0020   75 78  290/ 16/ 17 1013.0R
ST AUGUSTINE FL  0100   65 64  170/ 11/ 12 1012.3R


$$


USA.gov is the U.S. government's official web portal to all federal, state and local government web resources and services.